M I D A S
Marine Information and Data Acquisition System
Tripno 2202 of the Zeeleeuw from 2011-10-20 06:37:34 to 2011-10-20 15:03:50
Back to CruiseResearch ActivitiesStationsMapUnderway DataData graphs

EquipmentUnitsComments
TimeDGPSUTC
LatitudeDGPSDM.mWGS84
LongitudeDGPSDM.mWGS84
SpeedMeteo Stationm/sRelative wind speed
DirectionMeteo StationdegRelative wind direction
TemperatureMeteo Stationdeg CelciusAir temperature
PressureMeteo StationPaAtmospheric pressure
HumidityMeteo Station%Relative humidity
Missing or incorrect values are displayed as -999
Metereological data collected by the RV Zeeleeuw from 2011-10-20 06:34:08 to 2011-10-20 15:12:48
Time Latitude Longitude Speed Direction Temperature Pressure Humidity
2011-10-20 06:35 51°13.656 2°55.939 5.9 25 9.4 102450 31
2011-10-20 06:36 51°13.684 2°55.839 6.4 22 9.4 102460 32
2011-10-20 06:37 51°13.737 2°55.732 4.4 21 9.5 102460 31
2011-10-20 06:38 51°13.811 2°55.654 6.6 20 9.9 102450 31
2011-10-20 06:39 51°13.896 2°55.614 7.7 25 9.7 102450 30
2011-10-20 06:40 51°13.957 2°55.631 8.3 29 9.6 102440 29
2011-10-20 06:41 51°13.966 2°55.615 6.9 351 9.5 102440 31
2011-10-20 06:42 51°14.025 2°55.526 8.8 329 9.5 102440 31
2011-10-20 06:43 51°14.156 2°55.409 12 331 9.5 102430 33
2011-10-20 06:44 51°14.323 2°55.261 11.4 331 9.5 102440 30
2011-10-20 06:45 51°14.482 2°55.106 14.4 328 9.5 102440 30
2011-10-20 06:46 51°14.647 2°54.94 6.3 326 9.6 102420 31
2011-10-20 06:47 51°14.811 2°54.773 14.8 330 9.6 102440 31
2011-10-20 06:48 51°14.949 2°54.571 10.7 333 9.5 102440 30
2011-10-20 06:49 51°15.085 2°54.351 12.2 330 9.5 102440 31
2011-10-20 06:50 51°15.243 2°54.167 14 329 9.6 102450 33
2011-10-20 06:51 51°15.406 2°54.005 9.1 328 9.5 102450 31
2011-10-20 06:52 51°15.566 2°53.818 13.5 335 9.6 102450 34
2011-10-20 06:53 51°15.713 2°53.62 7.4 330 9.5 102450 31
2011-10-20 06:54 51°15.877 2°53.451 14.4 332 9.6 102440 33
2011-10-20 06:55 51°16.056 2°53.317 13.7 325 9.6 102450 33
2011-10-20 06:56 51°16.243 2°53.215 16.3 327 9.5 102430 31
2011-10-20 06:57 51°16.43 2°53.1 11.5 324 9.6 102440 35
2011-10-20 06:58 51°16.608 2°52.975 17.4 322 9.5 102430 33
2011-10-20 06:59 51°16.79 2°52.855 13.4 321 9.5 102460 33
2011-10-20 07:00 51°16.972 2°52.739 15.8 327 9.4 102440 32
2011-10-20 07:01 51°17.169 2°52.664 15.4 321 9.5 102430 33
2011-10-20 07:02 51°17.364 2°52.607 16.1 323 9.5 102470 32
2011-10-20 07:03 51°17.559 2°52.539 15.7 324 9.4 102440 32
2011-10-20 07:04 51°17.755 2°52.5 10.3 320 9.4 102420 32
2011-10-20 07:05 51°17.959 2°52.489 7.2 317 9.5 102450 36
2011-10-20 07:06 51°18.164 2°52.478 12.4 317 9.4 102440 32
2011-10-20 07:07 51°18.359 2°52.453 11.8 318 9.4 102440 33
2011-10-20 07:08 51°18.556 2°52.432 11.7 318 9.4 102460 32
2011-10-20 07:09 51°18.749 2°52.419 16.1 316 9.4 102450 32
2011-10-20 07:10 51°18.948 2°52.396 14.7 23 9.5 102450 34
2011-10-20 07:11 51°19.141 2°52.386 10.6 319 9.4 102420 32
2011-10-20 07:12 51°19.333 2°52.369 12.6 319 9.4 102450 30
2011-10-20 07:13 51°19.523 2°52.348 14.1 317 9.5 102430 34
2011-10-20 07:14 51°19.714 2°52.326 6.5 317 9.4 102460 33
2011-10-20 07:15 51°19.911 2°52.307 12 320 9.5 102430 33
2011-10-20 07:16 51°20.11 2°52.29 12.2 319 9.4 102460 31
2011-10-20 07:17 51°20.31 2°52.265 13.9 316 9.4 102440 32
2011-10-20 07:18 51°20.499 2°52.236 14.4 321 9.4 102440 30
2011-10-20 07:19 51°20.69 2°52.218 6.4 316 9.4 102430 32
2011-10-20 07:20 51°20.879 2°52.196 14.4 321 9.5 102430 31
2011-10-20 07:21 51°21.075 2°52.175 11.4 317 9.5 102440 31
2011-10-20 07:22 51°21.276 2°52.187 12.8 316 9.4 102450 31
2011-10-20 07:23 51°21.472 2°52.189 13.2 323 9.4 102450 32
2011-10-20 07:24 51°21.666 2°52.188 13.6 321 9.4 102440 30
2011-10-20 07:25 51°21.861 2°52.2 8.9 316 9.4 102440 32
2011-10-20 07:26 51°22.059 2°52.206 10.8 317 9.4 102460 31
2011-10-20 07:27 51°22.258 2°52.203 14.2 315 9.4 102440 31
2011-10-20 07:28 51°22.45 2°52.209 8.8 318 9.4 102440 30
2011-10-20 07:29 51°22.65 2°52.222 9.7 324 9.4 102430 31
2011-10-20 07:30 51°22.85 2°52.226 14.1 318 9.4 102460 31
2011-10-20 07:31 51°23.05 2°52.223 13.7 322 9.4 102460 32
2011-10-20 07:32 51°23.241 2°52.224 13 315 9.3 102470 31
2011-10-20 07:33 51°23.438 2°52.225 10.2 316 9.3 102450 32
2011-10-20 07:34 51°23.644 2°52.224 12 24 9.3 102460 33
2011-10-20 07:35 51°23.85 2°52.224 12.2 318 9.4 102460 33
2011-10-20 07:36 51°24.045 2°52.226 8.9 320 9.4 102460 29
2011-10-20 07:37 51°24.236 2°52.222 10.9 326 9.5 102470 34
2011-10-20 07:38 51°24.434 2°52.22 11.1 319 9.5 102460 32
2011-10-20 07:39 51°24.635 2°52.215 13.7 319 9.5 102460 31
2011-10-20 07:40 51°24.833 2°52.211 10.1 316 9.5 102470 31
2011-10-20 07:41 51°25.023 2°52.214 11.6 316 9.5 102460 34
2011-10-20 07:42 51°25.223 2°52.205 5.3 321 9.4 102450 33
2011-10-20 07:43 51°25.416 2°52.138 12.5 318 9.4 102440 32
2011-10-20 07:44 51°25.614 2°52.077 11.2 318 9.4 102470 31
2011-10-20 07:45 51°25.798 2°52.029 10.9 321 9.4 102460 33
2011-10-20 07:46 51°25.992 2°51.974 13.1 323 9.4 102460 32
2011-10-20 07:47 51°26.18 2°51.923 7.2 320 9.4 102470 32
2011-10-20 07:48 51°26.369 2°51.857 10.4 325 9.4 102480 32
2011-10-20 07:49 51°26.54 2°51.757 10.7 320 9.4 102490 31
2011-10-20 07:50 51°26.612 2°51.718 6.8 23 9.3 102490 31
2011-10-20 07:51 51°26.624 2°51.723 8.5 321 9.3 102510 32
2011-10-20 07:52 51°26.612 2°51.749 6.9 317 9.5 102500 32
2011-10-20 07:53 51°26.602 2°51.77 6.4 318 9.5 102510 31
2011-10-20 07:54 51°26.603 2°51.775 7.5 348 9.5 102510 31
2011-10-20 07:55 51°26.605 2°51.777 6.3 351 9.3 102500 30
2011-10-20 07:56 51°26.606 2°51.778 6.3 350 9.4 102510 34
2011-10-20 07:57 51°26.608 2°51.78 7.2 347 9.4 102500 32
2011-10-20 07:58 51°26.607 2°51.78 6.9 351 9.4 102500 35
2011-10-20 07:59 51°26.608 2°51.78 6.4 355 9.3 102500 31
2011-10-20 08:00 51°26.607 2°51.778 7.9 1 9.4 102510 33
2011-10-20 08:01 51°26.604 2°51.777 6.2 350 9.3 102510 32
2011-10-20 08:02 51°26.605 2°51.774 6.4 347 9.3 102510 32
2011-10-20 08:03 51°26.605 2°51.776 6.7 340 9.3 102510 30
2011-10-20 08:04 51°26.606 2°51.778 6.3 333 9.3 102520 31
2011-10-20 08:05 51°26.608 2°51.779 7.2 347 9.3 102520 34
2011-10-20 08:06 51°26.608 2°51.78 6.8 358 9.4 102500 31
2011-10-20 08:07 51°26.607 2°51.778 6.9 359 9.5 102510 32
2011-10-20 08:08 51°26.606 2°51.776 5.6 353 9.6 102510 30
2011-10-20 08:09 51°26.605 2°51.774 6.9 345 9.5 102530 32
2011-10-20 08:10 51°26.605 2°51.774 5.8 352 9.4 102530 32
2011-10-20 08:11 51°26.605 2°51.775 6 339 9.3 102520 32
2011-10-20 08:12 51°26.606 2°51.776 5.1 342 9.3 102530 32
2011-10-20 08:13 51°26.605 2°51.777 6.5 336 9.4 102530 35
2011-10-20 08:14 51°26.606 2°51.779 5.7 336 9.5 102520 33
2011-10-20 08:15 51°26.607 2°51.776 7 337 9.4 102520 32
2011-10-20 08:16 51°26.609 2°51.777 6.6 334 9.5 102520 31
2011-10-20 08:17 51°26.607 2°51.782 8.1 336 9.5 102530 34
2011-10-20 08:18 51°26.607 2°51.779 6.4 348 9.4 102520 30
2011-10-20 08:19 51°26.606 2°51.774 8.1 -999 9.3 102520 32
2011-10-20 08:20 51°26.603 2°51.772 5.9 358 9.4 102520 34
2011-10-20 08:21 51°26.601 2°51.771 8.9 354 9.4 102510 32
2011-10-20 08:22 51°26.6 2°51.771 8 341 9.5 102520 34
2011-10-20 08:23 51°26.601 2°51.772 7.9 334 9.4 102520 33
2011-10-20 08:24 51°26.602 2°51.773 6.3 329 9.3 102520 30
2011-10-20 08:25 51°26.603 2°51.775 6.6 331 9.3 102540 32
2011-10-20 08:26 51°26.604 2°51.774 9.3 332 9.4 102530 35
2011-10-20 08:27 51°26.603 2°51.774 7.2 351 9.4 102520 34
2011-10-20 08:28 51°26.601 2°51.77 7.3 356 9.3 102530 32
2011-10-20 08:29 51°26.6 2°51.767 6.7 349 9.3 102520 31
2011-10-20 08:30 51°26.599 2°51.763 6.5 347 9.2 102540 31
2011-10-20 08:31 51°26.598 2°51.76 5.5 343 9.2 102530 33
2011-10-20 08:32 51°26.597 2°51.759 7.1 343 9.2 102530 31
2011-10-20 08:33 51°26.596 2°51.757 6.2 333 9.3 102550 34
2011-10-20 08:34 51°26.597 2°51.761 6.1 324 9.3 102530 32
2011-10-20 08:35 51°26.597 2°51.765 5.9 325 9.3 102530 32
2011-10-20 08:36 51°26.605 2°51.765 6.8 321 9.3 102520 32
2011-10-20 08:37 51°26.613 2°51.754 7.9 337 9.3 102540 33
2011-10-20 08:38 51°26.618 2°51.738 8.2 347 9.4 102530 34
2011-10-20 08:39 51°26.613 2°51.734 6.2 354 9.2 102540 30
2011-10-20 08:40 51°26.607 2°51.735 7.8 8 9.2 102550 31
2011-10-20 08:41 51°26.599 2°51.731 6.9 359 9.2 102540 31
2011-10-20 08:42 51°26.6 2°51.679 7.6 328 9.3 102570 32
2011-10-20 08:43 51°26.671 2°51.632 9 23 9.3 102530 32
2011-10-20 08:44 51°26.834 2°51.624 10.9 316 9.4 102510 32
2011-10-20 08:45 51°27.031 2°51.678 10.9 22 9.4 102530 33
2011-10-20 08:46 51°27.228 2°51.71 7.7 316 9.4 102520 31
2011-10-20 08:47 51°27.429 2°51.726 12.6 19 9.4 102520 34
2011-10-20 08:48 51°27.638 2°51.741 11.7 25 9.4 102520 32
2011-10-20 08:49 51°27.838 2°51.766 12.5 20 9.4 102520 33
2011-10-20 08:50 51°28.042 2°51.784 9.4 21 9.4 102530 33
2011-10-20 08:51 51°28.239 2°51.809 10.5 22 9.5 102530 33
2011-10-20 08:52 51°28.439 2°51.821 10.2 315 9.5 102540 33
2011-10-20 08:53 51°28.636 2°51.84 12.1 316 9.5 102530 34
2011-10-20 08:54 51°28.83 2°51.857 9.9 24 9.4 102540 31
2011-10-20 08:55 51°29.027 2°51.868 13.1 320 9.5 102560 34
2011-10-20 08:56 51°29.227 2°51.886 11.6 27 9.4 102540 31
2011-10-20 08:57 51°29.429 2°51.897 8.6 26 9.4 102530 31
2011-10-20 08:58 51°29.626 2°51.918 14.9 21 9.3 102560 32
2011-10-20 08:59 51°29.824 2°51.944 9.4 318 9.3 102540 33
2011-10-20 09:00 51°30.026 2°51.96 8 318 9.3 102550 33
2011-10-20 09:01 51°30.229 2°51.99 11.3 23 9.3 102550 33
2011-10-20 09:02 51°30.429 2°52.016 13.7 317 9.4 102550 33
2011-10-20 09:03 51°30.637 2°52.026 4.4 318 9.3 102540 32
2011-10-20 09:04 51°30.836 2°52.049 10 316 9.3 102540 31
2011-10-20 09:05 51°31.041 2°52.067 6 24 9.3 102550 31
2011-10-20 09:06 51°31.246 2°52.084 10.3 19 9.4 102550 32
2011-10-20 09:07 51°31.442 2°52.109 15.1 25 9.4 102560 33
2011-10-20 09:08 51°31.643 2°52.1 7.9 25 9.3 102540 32
2011-10-20 09:09 51°31.846 2°52.091 5.9 316 9.4 102550 32
2011-10-20 09:10 51°32.049 2°52.09 5.6 25 9.4 102540 32
2011-10-20 09:11 51°32.252 2°52.074 5.4 316 9.4 102560 32
2011-10-20 09:12 51°32.449 2°52.074 8.3 316 9.4 102560 30
2011-10-20 09:13 51°32.646 2°52.096 8.8 316 9.4 102560 32
2011-10-20 09:14 51°32.841 2°52.173 9.3 318 9.4 102560 33
2011-10-20 09:15 51°33.009 2°52.346 9 26 9.4 102560 33
2011-10-20 09:16 51°33.162 2°52.561 9 25 9.5 102560 33
2011-10-20 09:17 51°33.301 2°52.794 9 22 9.5 102550 33
2011-10-20 09:18 51°33.423 2°53.062 5.6 27 9.5 102570 32
2011-10-20 09:19 51°33.539 2°53.324 9.1 23 9.5 102570 33
2011-10-20 09:20 51°33.653 2°53.564 9.6 25 9.5 102560 31
2011-10-20 09:21 51°33.713 2°53.688 7.2 254 9.6 102560 34
2011-10-20 09:22 51°33.742 2°53.743 8.1 255 9.5 102570 32
2011-10-20 09:23 51°33.76 2°53.773 6.3 255 9.5 102580 32
2011-10-20 09:24 51°33.769 2°53.789 5.4 256 9.6 102580 33
2011-10-20 09:25 51°33.775 2°53.801 5.6 250 9.7 102580 32
2011-10-20 09:26 51°33.777 2°53.811 7.1 250 9.8 102570 32
2011-10-20 09:27 51°33.775 2°53.819 4.5 248 9.8 102580 33
2011-10-20 09:28 51°33.768 2°53.825 4.1 267 9.8 102570 31
2011-10-20 09:29 51°33.76 2°53.827 3.7 265 9.7 102580 31
2011-10-20 09:30 51°33.755 2°53.835 5.1 270 9.7 102580 34
2011-10-20 09:31 51°33.769 2°53.872 5.1 252 9.7 102580 34
2011-10-20 09:32 51°33.811 2°53.882 6.4 323 9.8 102580 33
2011-10-20 09:33 51°33.823 2°53.798 6.8 355 9.8 102580 33
2011-10-20 09:34 51°33.78 2°53.751 6.3 18 9.7 102560 33
2011-10-20 09:35 51°33.743 2°53.725 5.4 29 9.7 102600 34
2011-10-20 09:36 51°33.719 2°53.703 6 16 9.7 102600 30
2011-10-20 09:37 51°33.702 2°53.687 7.3 16 9.7 102590 33
2011-10-20 09:38 51°33.689 2°53.677 6.1 20 9.7 102600 33
2011-10-20 09:39 51°33.678 2°53.67 3.9 17 9.6 102600 34
2011-10-20 09:40 51°33.67 2°53.667 7.9 10 9.6 102580 33
2011-10-20 09:41 51°33.662 2°53.67 5.2 28 9.6 102590 33
2011-10-20 09:42 51°33.655 2°53.67 6.7 21 9.6 102600 33
2011-10-20 09:43 51°33.647 2°53.67 6.8 19 9.6 102580 34
2011-10-20 09:44 51°33.639 2°53.67 5.2 19 9.5 102580 32
2011-10-20 09:45 51°33.631 2°53.669 5.5 11 9.5 102600 35
2011-10-20 09:46 51°33.623 2°53.667 6.5 22 9.5 102590 34
2011-10-20 09:47 51°33.613 2°53.668 5.6 22 9.6 102590 35
2011-10-20 09:48 51°33.603 2°53.668 5.2 19 9.5 102600 32
2011-10-20 09:49 51°33.593 2°53.664 5.8 21 9.5 102580 32
2011-10-20 09:50 51°33.584 2°53.659 5.6 15 9.5 102590 36
2011-10-20 09:51 51°33.575 2°53.654 6.1 13 9.6 102590 33
2011-10-20 09:52 51°33.566 2°53.654 5.5 17 9.4 102590 29
2011-10-20 09:53 51°33.557 2°53.654 6.4 13 9.4 102610 31
2011-10-20 09:54 51°33.549 2°53.659 6.6 12 9.4 102590 32
2011-10-20 09:55 51°33.542 2°53.666 5.5 20 9.4 102590 32
2011-10-20 09:56 51°33.537 2°53.671 5.3 23 9.5 102590 32
2011-10-20 09:57 51°33.531 2°53.675 4.8 26 9.5 102610 31
2011-10-20 09:58 51°33.523 2°53.676 4.5 25 9.5 102600 30
2011-10-20 09:59 51°33.513 2°53.674 4.8 29 9.6 102600 32
2011-10-20 10:00 51°33.504 2°53.671 4.6 21 9.7 102600 30
2011-10-20 10:01 51°33.496 2°53.669 6.6 16 9.8 102600 34
2011-10-20 10:02 51°33.489 2°53.673 5.2 13 9.8 102600 32
2011-10-20 10:03 51°33.484 2°53.678 6.1 25 9.7 102600 31
2011-10-20 10:04 51°33.477 2°53.682 4.8 32 9.7 102610 33
2011-10-20 10:05 51°33.47 2°53.683 7 16 9.7 102600 32
2011-10-20 10:06 51°33.462 2°53.687 6.8 13 9.7 102580 33
2011-10-20 10:07 51°33.449 2°53.683 7.3 12 9.6 102600 29
2011-10-20 10:08 51°33.425 2°53.626 6.3 351 9.6 102600 28
2011-10-20 10:09 51°33.415 2°53.511 7.2 348 9.5 102610 31
2011-10-20 10:10 51°33.414 2°53.392 6.8 344 9.5 102600 29
2011-10-20 10:11 51°33.417 2°53.3 5.6 350 9.5 102610 30
2011-10-20 10:12 51°33.418 2°53.238 7.5 347 9.6 102610 31
2011-10-20 10:13 51°33.414 2°53.207 6.1 344 9.6 102610 29
2011-10-20 10:14 51°33.407 2°53.191 5.5 341 9.5 102610 29
2011-10-20 10:15 51°33.399 2°53.185 6.5 346 9.6 102620 30
2011-10-20 10:16 51°33.39 2°53.191 4.5 355 9.5 102610 28
2011-10-20 10:17 51°33.382 2°53.203 4.4 358 9.5 102600 30
2011-10-20 10:18 51°33.377 2°53.212 5.7 12 9.5 102610 31
2011-10-20 10:19 51°33.371 2°53.216 6.7 25 9.6 102620 34
2011-10-20 10:20 51°33.362 2°53.217 6.2 21 9.7 102620 31
2011-10-20 10:21 51°33.353 2°53.218 6.4 26 9.8 102620 33
2011-10-20 10:22 51°33.34 2°53.216 7.5 29 9.8 102620 31
2011-10-20 10:23 51°33.327 2°53.21 5 23 9.7 102620 31
2011-10-20 10:24 51°33.316 2°53.204 5.1 17 9.7 102610 27
2011-10-20 10:25 51°33.307 2°53.201 4 19 9.6 102620 30
2011-10-20 10:26 51°33.297 2°53.197 6.9 19 9.6 102630 31
2011-10-20 10:27 51°33.287 2°53.196 5.9 24 9.7 102620 33
2011-10-20 10:28 51°33.276 2°53.197 5.8 24 9.7 102630 33
2011-10-20 10:29 51°33.266 2°53.197 6 28 9.7 102620 29
2011-10-20 10:30 51°33.256 2°53.196 6.8 27 9.8 102630 30
2011-10-20 10:31 51°33.245 2°53.195 5.4 25 9.7 102620 30
2011-10-20 10:32 51°33.233 2°53.192 7.4 33 9.7 102630 29
2011-10-20 10:33 51°33.222 2°53.189 5 30 9.7 102630 30
2011-10-20 10:34 51°33.209 2°53.185 5.2 21 9.7 102640 30
2011-10-20 10:35 51°33.185 2°53.128 7.8 352 9.8 102630 33
2011-10-20 10:36 51°33.201 2°53.027 6.5 332 9.8 102630 31
2011-10-20 10:37 51°33.247 2°52.997 8.1 19 9.9 102620 33
2011-10-20 10:38 51°33.278 2°53.019 6.9 248 9.9 102630 31
2011-10-20 10:39 51°33.292 2°53.035 5.6 244 10 102640 30
2011-10-20 10:40 51°33.301 2°53.045 7 246 10.2 102640 32
2011-10-20 10:41 51°33.303 2°53.052 7.5 249 10.3 102640 33
2011-10-20 10:42 51°33.3 2°53.058 6.1 247 10.3 102640 31
2011-10-20 10:43 51°33.295 2°53.063 6.3 255 10.4 102650 32
2011-10-20 10:44 51°33.293 2°53.068 7.3 252 10.3 102640 31
2011-10-20 10:45 51°33.317 2°53.095 5 22 10.3 102620 31
2011-10-20 10:46 51°33.351 2°53.13 4.2 251 10.3 102640 32
2011-10-20 10:47 51°33.373 2°53.151 6.7 25 10.4 102620 33
2011-10-20 10:48 51°33.38 2°53.165 7 19 10.4 102600 31
2011-10-20 10:49 51°33.381 2°53.172 6.6 20 10.4 102620 32
2011-10-20 10:50 51°33.378 2°53.176 6.7 245 10.4 102630 33
2011-10-20 10:51 51°33.372 2°53.179 7.3 260 10.5 102620 32
2011-10-20 10:52 51°33.361 2°53.182 5.9 256 10.5 102620 31
2011-10-20 10:53 51°33.349 2°53.18 4.5 258 10.5 102630 31
2011-10-20 10:54 51°33.344 2°53.187 7.1 253 10.4 102630 33
2011-10-20 10:55 51°33.351 2°53.207 7.4 251 10.4 102630 33
2011-10-20 10:56 51°33.363 2°53.232 6.1 252 10.3 102630 31
2011-10-20 10:57 51°33.379 2°53.256 6.6 253 10.3 102620 32
2011-10-20 10:58 51°33.395 2°53.283 5.5 19 10.3 102630 32
2011-10-20 10:59 51°33.412 2°53.312 7.8 253 10.2 102640 32
2011-10-20 11:00 51°33.427 2°53.342 5.6 253 10.2 102610 33
2011-10-20 11:01 51°33.439 2°53.375 7.1 256 10.2 102640 33
2011-10-20 11:02 51°33.451 2°53.406 7.9 256 10.2 102640 32
2011-10-20 11:03 51°33.465 2°53.439 4.8 263 10.2 102640 33
2011-10-20 11:04 51°33.478 2°53.472 9.9 259 10.1 102640 31
2011-10-20 11:05 51°33.487 2°53.503 8 258 10.2 102630 33
2011-10-20 11:06 51°33.495 2°53.535 8.9 256 10.2 102620 32
2011-10-20 11:07 51°33.504 2°53.56 9.7 252 10.3 102620 33
2011-10-20 11:08 51°33.516 2°53.585 7.5 257 10.3 102630 32
2011-10-20 11:09 51°33.531 2°53.604 6.7 255 10.3 102630 32
2011-10-20 11:10 51°33.546 2°53.619 4.9 249 10.2 102630 32
2011-10-20 11:11 51°33.564 2°53.633 5.9 246 10.2 102630 32
2011-10-20 11:12 51°33.58 2°53.645 11.5 21 10.3 102620 32
2011-10-20 11:13 51°33.597 2°53.658 7.5 245 10.4 102620 34
2011-10-20 11:14 51°33.609 2°53.668 4.4 250 10.5 102610 34
2011-10-20 11:15 51°33.611 2°53.673 8.8 246 10.5 102620 31
2011-10-20 11:16 51°33.604 2°53.675 8 251 10.4 102630 31
2011-10-20 11:17 51°33.592 2°53.675 8.7 255 10.4 102630 34
2011-10-20 11:18 51°33.577 2°53.673 7.1 248 10.4 102640 33
2011-10-20 11:19 51°33.559 2°53.667 5.3 264 10.4 102620 33
2011-10-20 11:20 51°33.539 2°53.657 5.9 265 10.4 102630 33
2011-10-20 11:21 51°33.521 2°53.648 5.8 266 10.4 102630 33
2011-10-20 11:22 51°33.504 2°53.643 7.3 260 10.2 102640 30
2011-10-20 11:23 51°33.489 2°53.64 6.9 252 10.2 102640 31
2011-10-20 11:24 51°33.479 2°53.639 7.3 251 10.3 102630 31
2011-10-20 11:25 51°33.47 2°53.639 7 254 10.5 102620 33
2011-10-20 11:26 51°33.461 2°53.639 6.9 254 10.5 102630 31
2011-10-20 11:27 51°33.453 2°53.637 9.3 23 10.6 102630 32
2011-10-20 11:28 51°33.444 2°53.637 7.2 26 10.6 102630 30
2011-10-20 11:29 51°33.437 2°53.641 8.2 260 10.7 102630 33
2011-10-20 11:30 51°33.451 2°53.653 5 23 10.6 102630 30
2011-10-20 11:31 51°33.475 2°53.649 7.8 23 10.7 102640 31
2011-10-20 11:32 51°33.504 2°53.646 7.7 244 10.7 102630 31
2011-10-20 11:33 51°33.521 2°53.676 7.2 256 10.6 102640 31
2011-10-20 11:34 51°33.545 2°53.709 6.1 254 10.6 102650 31
2011-10-20 11:35 51°33.578 2°53.724 10 26 10.7 102630 31
2011-10-20 11:36 51°33.608 2°53.736 7.9 247 10.7 102620 30
2011-10-20 11:37 51°33.638 2°53.753 7.4 252 10.7 102640 31
2011-10-20 11:38 51°33.668 2°53.776 7.6 244 10.9 102630 33
2011-10-20 11:39 51°33.695 2°53.768 6.7 21 10.8 102630 32
2011-10-20 11:40 51°33.703 2°53.722 6.6 339 10.6 102640 30
2011-10-20 11:41 51°33.684 2°53.668 5.5 12 10.3 102630 30
2011-10-20 11:42 51°33.643 2°53.633 5.2 22 10.2 102640 29
2011-10-20 11:43 51°33.609 2°53.606 6.4 19 10.1 102650 29
2011-10-20 11:44 51°33.582 2°53.587 5.7 24 10.2 102660 34
2011-10-20 11:45 51°33.558 2°53.568 6.8 10 10.2 102640 34
2011-10-20 11:46 51°33.534 2°53.551 6.8 10 10.1 102640 31
2011-10-20 11:47 51°33.512 2°53.537 7 16 10.2 102650 37
2011-10-20 11:48 51°33.493 2°53.525 6 15 10.2 102640 34
2011-10-20 11:49 51°33.475 2°53.517 7.1 11 10.1 102660 35
2011-10-20 11:50 51°33.456 2°53.51 6 20 10 102650 33
2011-10-20 11:51 51°33.439 2°53.504 6.6 24 10 102660 33
2011-10-20 11:52 51°33.42 2°53.496 6.2 22 9.9 102660 33
2011-10-20 11:53 51°33.388 2°53.456 7.3 356 9.9 102660 33
2011-10-20 11:54 51°33.366 2°53.389 7.8 335 10 102620 32
2011-10-20 11:55 51°33.366 2°53.332 7.4 18 9.9 102630 31
2011-10-20 11:56 51°33.368 2°53.319 7.4 253 10 102640 30
2011-10-20 11:57 51°33.361 2°53.323 6.6 261 10 102640 31
2011-10-20 11:58 51°33.352 2°53.329 4.7 263 10 102650 31
2011-10-20 11:59 51°33.34 2°53.339 7.1 27 10.1 102640 32
2011-10-20 12:00 51°33.331 2°53.352 5 266 10.2 102660 34
2011-10-20 12:01 51°33.331 2°53.361 5.6 254 10.2 102650 32
2011-10-20 12:02 51°33.342 2°53.363 3.3 19 10.4 102640 34
2011-10-20 12:03 51°33.355 2°53.359 7.6 21 10.5 102660 33
2011-10-20 12:04 51°33.369 2°53.351 6.6 25 10.5 102630 32
2011-10-20 12:05 51°33.377 2°53.339 7.4 20 10.5 102630 29
2011-10-20 12:06 51°33.388 2°53.324 6 20 10.5 102640 30
2011-10-20 12:07 51°33.401 2°53.304 3.1 315 10.4 102630 27
2011-10-20 12:08 51°33.406 2°53.271 7.3 334 10.4 102640 29
2011-10-20 12:09 51°33.396 2°53.232 9.4 350 10.5 102630 31
2011-10-20 12:10 51°33.376 2°53.208 8.8 352 10.2 102640 28
2011-10-20 12:11 51°33.356 2°53.2 4.8 8 10 102650 29
2011-10-20 12:12 51°33.338 2°53.195 6.3 11 10 102650 32
2011-10-20 12:13 51°33.323 2°53.19 6.4 18 10 102660 31
2011-10-20 12:14 51°33.309 2°53.187 7.3 30 10 102660 31
2011-10-20 12:15 51°33.293 2°53.184 6 27 10.1 102650 31
2011-10-20 12:16 51°33.277 2°53.18 6.2 37 10.1 102650 31
2011-10-20 12:17 51°33.261 2°53.174 6.4 29 10.2 102650 30
2011-10-20 12:18 51°33.244 2°53.169 6.5 22 10.3 102660 33
2011-10-20 12:19 51°33.225 2°53.162 7.9 28 10.2 102650 31
2011-10-20 12:20 51°33.208 2°53.156 5.4 27 10.3 102660 32
2011-10-20 12:21 51°33.192 2°53.149 6.9 26 10.2 102650 31
2011-10-20 12:22 51°33.175 2°53.143 6.1 26 10.2 102660 30
2011-10-20 12:23 51°33.137 2°53.113 5.7 356 10.1 102650 29
2011-10-20 12:24 51°33.118 2°53.019 7 329 10.1 102650 31
2011-10-20 12:25 51°33.162 2°52.93 7.7 323 10.1 102630 29
2011-10-20 12:26 51°33.246 2°52.848 6.5 26 10.2 102630 29
2011-10-20 12:27 51°33.331 2°52.913 6 253 10.2 102630 32
2011-10-20 12:28 51°33.408 2°53.023 8.8 250 10.4 102630 31
2011-10-20 12:29 51°33.474 2°53.144 4.5 253 10.5 102640 32
2011-10-20 12:30 51°33.536 2°53.277 4.5 251 10.5 102630 31
2011-10-20 12:31 51°33.604 2°53.414 2.8 257 10.6 102640 31
2011-10-20 12:32 51°33.67 2°53.554 4.5 258 10.6 102640 32
2011-10-20 12:33 51°33.721 2°53.667 4.3 260 10.8 102630 33
2011-10-20 12:34 51°33.744 2°53.703 5.1 263 10.8 102630 32
2011-10-20 12:35 51°33.75 2°53.708 6.9 255 10.9 102630 33
2011-10-20 12:36 51°33.746 2°53.704 6.6 254 10.9 102630 31
2011-10-20 12:37 51°33.735 2°53.698 7 257 10.9 102620 32
2011-10-20 12:38 51°33.718 2°53.688 6.6 259 10.8 102630 29
2011-10-20 12:39 51°33.699 2°53.676 5.5 262 10.8 102640 30
2011-10-20 12:40 51°33.677 2°53.662 3.5 265 10.8 102630 28
2011-10-20 12:41 51°33.654 2°53.648 4 267 10.7 102640 31
2011-10-20 12:42 51°33.633 2°53.637 6.3 270 10.7 102640 32
2011-10-20 12:43 51°33.61 2°53.622 4.5 266 10.6 102640 32
2011-10-20 12:44 51°33.588 2°53.607 5.3 21 10.6 102630 32
2011-10-20 12:45 51°33.566 2°53.594 6.4 28 10.5 102630 32
2011-10-20 12:46 51°33.546 2°53.583 4.1 23 10.4 102640 30
2011-10-20 12:47 51°33.527 2°53.57 4.7 21 10.3 102630 30
2011-10-20 12:48 51°33.507 2°53.56 6.4 270 10.3 102630 33
2011-10-20 12:49 51°33.519 2°53.555 8.3 20 10.2 102630 31
2011-10-20 12:50 51°33.531 2°53.497 8.3 337 10.2 102640 30
2011-10-20 12:51 51°33.51 2°53.432 6.1 356 10.2 102630 30
2011-10-20 12:52 51°33.482 2°53.394 5 357 10.1 102640 28
2011-10-20 12:53 51°33.456 2°53.367 4.2 358 10 102630 30
2011-10-20 12:54 51°33.432 2°53.344 5.5 7 10.1 102640 31
2011-10-20 12:55 51°33.408 2°53.328 6.4 12 10 102640 30
2011-10-20 12:56 51°33.387 2°53.318 6.2 12 10 102630 29
2011-10-20 12:57 51°33.366 2°53.31 5.5 20 10 102640 31
2011-10-20 12:58 51°33.347 2°53.3 4.5 23 10.2 102640 33
2011-10-20 12:59 51°33.326 2°53.29 5.9 27 10.3 102640 33
2011-10-20 13:00 51°33.307 2°53.282 5.8 25 10.3 102640 30
2011-10-20 13:01 51°33.286 2°53.273 4.3 6 10.4 102650 34
2011-10-20 13:02 51°33.243 2°53.239 5.2 8 10.2 102640 30
2011-10-20 13:03 51°33.206 2°53.207 5.3 5 10.1 102640 31
2011-10-20 13:04 51°33.172 2°53.18 6.4 6 10.3 102650 33
2011-10-20 13:05 51°33.144 2°53.157 6.1 9 10.2 102640 29
2011-10-20 13:06 51°33.119 2°53.139 6.2 4 10.1 102640 30
2011-10-20 13:07 51°33.095 2°53.125 4.6 19 10 102630 29
2011-10-20 13:08 51°33.071 2°53.11 6 -999 10.1 102630 30
2011-10-20 13:09 51°33.041 2°53.009 8.8 328 10.1 102620 28
2011-10-20 13:10 51°33.121 2°52.916 8.4 25 10.1 102610 30
2011-10-20 13:11 51°33.198 2°52.84 7.1 323 10.2 102610 27
2011-10-20 13:12 51°33.187 2°52.751 5.4 342 10.2 102620 28
2011-10-20 13:13 51°33.157 2°52.705 4.8 355 10.1 102610 28
2011-10-20 13:14 51°33.128 2°52.673 5.6 357 10.1 102620 30
2011-10-20 13:15 51°33.103 2°52.648 4.2 1 10 102640 28
2011-10-20 13:16 51°33.079 2°52.626 5.5 3 10 102640 30
2011-10-20 13:17 51°33.051 2°52.598 6 351 10.2 102620 34
2011-10-20 13:18 51°33.025 2°52.579 7.8 355 10.2 102620 33
2011-10-20 13:19 51°32.994 2°52.551 5.8 358 10.1 102620 28
2011-10-20 13:20 51°32.962 2°52.501 5.4 344 10 102630 29
2011-10-20 13:21 51°32.942 2°52.439 5.1 339 10 102630 29
2011-10-20 13:22 51°32.934 2°52.365 6.1 335 10 102620 28
2011-10-20 13:23 51°32.934 2°52.28 6.9 336 10.2 102620 31
2011-10-20 13:24 51°32.928 2°52.186 6.5 339 10.3 102610 30
2011-10-20 13:25 51°32.908 2°52.09 5.8 347 10.3 102610 30
2011-10-20 13:26 51°32.872 2°51.996 8.6 356 10.2 102610 31
2011-10-20 13:27 51°32.81 2°51.905 6.7 355 10.2 102610 30
2011-10-20 13:28 51°32.707 2°51.836 5.6 5 10.1 102610 31
2011-10-20 13:29 51°32.58 2°51.818 6.1 9 10.1 102620 30
2011-10-20 13:30 51°32.441 2°51.804 6.4 11 10.1 102600 32
2011-10-20 13:31 51°32.294 2°51.791 3.3 5 10.1 102630 30
2011-10-20 13:32 51°32.146 2°51.775 5.7 8 10.2 102610 31
2011-10-20 13:33 51°31.987 2°51.758 6.3 358 10.2 102620 32
2011-10-20 13:34 51°31.788 2°51.74 6.2 354 10.2 102600 32
2011-10-20 13:35 51°31.575 2°51.722 7.7 355 10.2 102630 32
2011-10-20 13:36 51°31.36 2°51.705 8.9 358 10.1 102620 32
2011-10-20 13:37 51°31.147 2°51.685 8.4 1 10.2 102620 32
2011-10-20 13:38 51°30.932 2°51.673 6.3 358 10.1 102620 33
2011-10-20 13:39 51°30.718 2°51.66 7 354 10.1 102620 34
2011-10-20 13:40 51°30.501 2°51.649 7.8 352 10.1 102600 31
2011-10-20 13:41 51°30.287 2°51.641 8.5 353 10.1 102620 33
2011-10-20 13:42 51°30.078 2°51.63 7.5 360 10 102600 32
2011-10-20 13:43 51°29.875 2°51.613 7.3 353 10.1 102620 34
2011-10-20 13:44 51°29.678 2°51.603 8 355 10.1 102600 33
2011-10-20 13:45 51°29.473 2°51.586 7.9 359 10.1 102630 33
2011-10-20 13:46 51°29.273 2°51.57 7 354 10 102630 32
2011-10-20 13:47 51°29.069 2°51.55 7.6 359 10 102620 33
2011-10-20 13:48 51°28.871 2°51.533 6.3 3 10 102600 33
2011-10-20 13:49 51°28.664 2°51.51 6.2 2 10 102630 32
2011-10-20 13:50 51°28.459 2°51.489 9 2 10.1 102610 35
2011-10-20 13:51 51°28.255 2°51.47 8.6 359 10 102620 32
2011-10-20 13:52 51°28.05 2°51.448 5.7 360 10 102610 31
2011-10-20 13:53 51°27.844 2°51.424 6.5 2 10 102620 32
2011-10-20 13:54 51°27.638 2°51.405 6.5 357 10 102630 34
2011-10-20 13:55 51°27.436 2°51.389 6.3 356 9.9 102620 33
2011-10-20 13:56 51°27.226 2°51.37 5.8 351 10 102630 35
2011-10-20 13:57 51°27.026 2°51.351 6.6 356 10 102630 35
2011-10-20 13:58 51°26.819 2°51.331 6.3 5 10 102610 35
2011-10-20 13:59 51°26.615 2°51.312 7.1 356 10 102610 33
2011-10-20 14:00 51°26.414 2°51.294 6.5 355 10 102620 35
2011-10-20 14:01 51°26.212 2°51.271 5.6 353 10 102610 34
2011-10-20 14:02 51°26.009 2°51.254 6.1 -999 10 102610 35
2011-10-20 14:03 51°25.801 2°51.229 6.1 1 10.1 102610 36
2011-10-20 14:04 51°25.596 2°51.207 6.6 357 10.1 102620 36
2011-10-20 14:05 51°25.39 2°51.179 7.1 355 10.1 102610 36
2011-10-20 14:06 51°25.189 2°51.159 7.8 357 10 102610 34
2011-10-20 14:07 51°24.979 2°51.134 9.1 355 10.1 102600 36
2011-10-20 14:08 51°24.773 2°51.104 7.9 355 10.1 102600 35
2011-10-20 14:09 51°24.566 2°51.075 7.3 358 10.1 102610 36
2011-10-20 14:10 51°24.359 2°51.044 8.4 357 10 102610 35
2011-10-20 14:11 51°24.151 2°51.018 6.8 359 10.1 102610 36
2011-10-20 14:12 51°23.945 2°50.995 7.1 358 10 102600 34
2011-10-20 14:13 51°23.742 2°50.981 7.2 358 10 102620 35
2011-10-20 14:14 51°23.541 2°50.974 8.8 354 10 102620 35
2011-10-20 14:15 51°23.336 2°50.961 10 353 10.1 102610 35
2011-10-20 14:16 51°23.132 2°50.95 8 -999 10.1 102610 35
2011-10-20 14:17 51°22.927 2°50.961 9.1 -999 10.1 102620 35
2011-10-20 14:18 51°22.729 2°50.968 6.4 -999 10.1 102620 35
2011-10-20 14:19 51°22.524 2°50.976 5.5 5 10.1 102620 36
2011-10-20 14:20 51°22.325 2°50.988 8 356 10.2 102620 35
2011-10-20 14:21 51°22.121 2°50.996 7.7 356 10.2 102610 35
2011-10-20 14:22 51°21.926 2°51.01 8.8 357 10.1 102620 35
2011-10-20 14:23 51°21.724 2°51.031 7.2 2 10.1 102640 34
2011-10-20 14:24 51°21.529 2°51.049 6.3 356 10.1 102620 35
2011-10-20 14:25 51°21.329 2°51.068 9.9 355 10.1 102610 35
2011-10-20 14:26 51°21.132 2°51.09 8.1 355 10.1 102610 34
2011-10-20 14:27 51°20.935 2°51.111 6.7 356 10.1 102610 34
2011-10-20 14:28 51°20.736 2°51.143 6 358 10.1 102630 35
2011-10-20 14:29 51°20.536 2°51.167 8.7 9 10.2 102620 36
2011-10-20 14:30 51°20.336 2°51.192 6.3 -999 10.2 102620 34
2011-10-20 14:31 51°20.134 2°51.216 8.5 360 10.2 102620 35
2011-10-20 14:32 51°19.937 2°51.237 7.9 3 10.2 102620 36
2011-10-20 14:33 51°19.736 2°51.273 7.5 -999 10.2 102610 36
2011-10-20 14:34 51°19.536 2°51.312 6.2 357 10.2 102620 35
2011-10-20 14:35 51°19.337 2°51.367 7.2 356 10.1 102610 36
2011-10-20 14:36 51°19.14 2°51.422 7 359 10.1 102620 35
2011-10-20 14:37 51°18.941 2°51.482 5.9 355 10.2 102620 35
2011-10-20 14:38 51°18.741 2°51.535 7.2 357 10.2 102610 36
2011-10-20 14:39 51°18.545 2°51.593 6.7 3 10.2 102620 36
2011-10-20 14:40 51°18.349 2°51.651 6.4 -999 10.2 102620 36
2011-10-20 14:41 51°18.159 2°51.731 5.5 5 10.2 102620 36
2011-10-20 14:42 51°17.966 2°51.814 5.9 3 10.1 102630 36
2011-10-20 14:43 51°17.779 2°51.905 5.7 358 10.1 102630 36
2011-10-20 14:44 51°17.592 2°51.993 5.7 -999 10.1 102630 36
2011-10-20 14:45 51°17.401 2°52.075 4.3 8 10.1 102620 36
2011-10-20 14:46 51°17.211 2°52.166 5 1 10.2 102630 37
2011-10-20 14:47 51°17.034 2°52.291 6.2 2 10.2 102630 37
2011-10-20 14:48 51°16.854 2°52.429 5.7 6 10.2 102620 35
2011-10-20 14:49 51°16.678 2°52.563 6.3 1 10.1 102630 37
2011-10-20 14:50 51°16.5 2°52.71 4 5 10.1 102630 36
2011-10-20 14:51 51°16.341 2°52.888 5.1 15 10.2 102630 38
2011-10-20 14:52 51°16.18 2°53.069 4.4 359 10.2 102630 36
2011-10-20 14:53 51°16.017 2°53.247 5 2 10.2 102630 37
2011-10-20 14:54 51°15.859 2°53.448 6.4 13 10.2 102620 36
2011-10-20 14:55 51°15.699 2°53.631 7.2 12 10.2 102630 35
2011-10-20 14:56 51°15.545 2°53.816 4.4 10 10.1 102630 35
2011-10-20 14:57 51°15.387 2°54.01 5.7 10 10.1 102630 36
2011-10-20 14:58 51°15.234 2°54.194 3.2 6 10.1 102640 35
2011-10-20 14:59 51°15.075 2°54.38 3.5 3 10.1 102640 36
2011-10-20 15:00 51°14.92 2°54.566 5.4 357 10.1 102630 36
2011-10-20 15:01 51°14.763 2°54.755 5.4 359 10.1 102630 36
2011-10-20 15:02 51°14.611 2°54.941 3.7 356 10.1 102630 36
2011-10-20 15:03 51°14.456 2°55.123 4 2 10.1 102630 35
2011-10-20 15:04 51°14.299 2°55.274 2.9 2 10.1 102630 35
2011-10-20 15:05 51°14.15 2°55.401 4.5 356 10 102630 35
2011-10-20 15:06 51°14.023 2°55.493 3.1 7 10.1 102640 36
2011-10-20 15:07 51°13.922 2°55.563 3.3 350 10.1 102630 35
2011-10-20 15:08 51°13.82 2°55.637 0.5 357 10.1 102640 35
2011-10-20 15:09 51°13.743 2°55.73 -999 23 10.2 102640 35
2011-10-20 15:10 51°13.689 2°55.841 1.9 20 10.2 102640 36
2011-10-20 15:11 51°13.652 2°55.935 1.8 25 10.3 102640 35
2011-10-20 15:12 51°13.637 2°56.009 3.1 18 10.3 102640 35